Location: Unspecified
(51.5147°N, 7.4673°E)
Time: 16:24:23
(UTC+01:00)

Transit 4A - Pass Details

Date: 26 February 2026
Orbit: 864 x 977 km, 66.8° (Epoch: 10 March)

Event Time Altitude Azimuth Distance (km) Brightness Sun altitude
Exits shadow 02:45:12 27° 48° (NE) 1,675 9.6 -40.5°
Drops below altitude 10° 02:47:54 10° 42° (NE) 2,627 10.9 -40.2°
Sets 02:50:29 0° 40° (NE) 3,592 11.9 -39.9°
